Starlink 11381

operational
NORAD ID: 62094 Int'l Des: 2024-220 Owner: SPXS Country: US Constellation: starlink
LEOCIRCULAR

About Starlink 11381

Description loading...

Live Position

Loading 3D Globe...

Upcoming Passes

Altitude History

Altitude vs Time

uPlot chart will show altitude changes over time

Two-Line Element Set

1 62094U 24220G 25258.07098863 .00279333 00000-0 21044-2 0 9994
2 62094 42.9993 21.5808 0001139 294.6573 65.4176 15.70880724 47331
Epoch: Sep 15, 2025 • Age: 18 hours

Current Status

Altitude 354.8 km
Velocity 7.70 km/s
Sub-Earth Point -1.39°S, 80.41°E
Launch Date Nov 25, 2024
Age 0.8 years
Type internet

Technical Details

Classification Payload
Mass 960.00 kg
Dry Mass 910.00 kg
Total Mass 960.00 kg
Length 0.30 m
Diameter 4.10 m
Span 29.00 m
Shape Box + pan
Manufacturer SPXS
Bus Type Starlink V2MD
Phase Status In Orbit
Owner/State SPXS/US

Large Constellations

Loading constellations...